Regional Weather Roundup
Issued by NWS

Home | Current Version | Previous Version | Graphics & Text | Print | Product List | Glossary On
Versions: 1 2 3 4 5 6 7 8 9 10 11 12 13 14 15 16 17 18 19 20 21 22 23 24 25 26 27 28 29 30 31 32 33 34 35 36 37 38 39 40 41 42 43 44 45 46 47 48 49 50
000
ASUS43 KLOT 231206
RWRIL

ILLINOIS REGIONAL WEATHER ROUNDUP
NATIONAL WEATHER SERVICE CHICAGO/ROMEOVILLE IL
700 AM CDT WED JUL 23 2014

NOTE: "FAIR" INDICATES FEW OR NO CLOUDS BELOW 12,000 FEET WITH NO
SIGNIFICANT WEATHER AND/OR OBSTRUCTIONS TO VISIBILITY.

* THESE STATIONS ARE NOT UNDER NWS QUALITY CONTROL. THEY ALSO MAY NOT
  REPORT WEATHER SUCH AS PRECIPITATION OR FOG.

ILZ001-002-007-009-015-016-024-231300-
NORTHWEST ILLINOIS

CITY           SKY/WX    TMP DP  RH WIND       PRES   REMARKS
MOLINE         SUNNY     70  63  78 NE7       30.12R
6HR MIN TEMP:  69; 6HR MAX TEMP:  78;

STERLING*      SUNNY     66  59  77 NE10      30.13S
SAVANNA*       SUNNY     67  60  78 N7        30.14S
$$

ILZ003-004-008-010-011-017-018-231300-
NORTH CENTRAL ILLINOIS

CITY           SKY/WX    TMP DP  RH WIND       PRES   REMARKS
ROCKFORD       MOSUNNY   65  56  72 NE14      30.17R
6HR MIN TEMP:  64; 6HR MAX TEMP:  77;

FREEPORT*      SUNNY     61  59  92 N6        30.17R
ROCHELLE*      SUNNY     63  57  80 N10       30.14R
DE KALB*       SUNNY     61  55  82 N10G18    30.13S
PERU*          SUNNY     65  58  76 NE12G17   30.11R
$$

ILZ005-006-012>014-019>023-231300-
NORTHEAST ILLINOIS

CITY           SKY/WX    TMP DP  RH WIND       PRES   REMARKS
CHICAGO-OHARE  MOSUNNY   65  52  62 N17       30.11R
6HR MIN TEMP:  64; 6HR MAX TEMP:  74;

CHICAGO-MIDWAY MOSUNNY   66  59  78 N15       30.10R
6HR MIN TEMP:  66; 6HR MAX TEMP:  77;

AURORA         SUNNY     64  56  75 NE12      30.10S
6HR MIN TEMP:  63; 6HR MAX TEMP:  78;

LANSING*       MOSUNNY   65  57  75 N16G23    30.10R
JOLIET*        SUNNY     65  54  68 N10       30.10R
WAUKEGAN       SUNNY     63  54  72 N16G22    30.11F
6HR MIN TEMP:  61; 6HR MAX TEMP:  66;

DUPAGE AIRPORT SUNNY     64  56  75 N17       30.10S
6HR MIN TEMP:  62; 6HR MAX TEMP:  75;

KANKAKEE*      MOSUNNY   65  58  78 N12G21    30.07S
WHEELING       SUNNY     65  54  67 N12       30.12S
6HR MIN TEMP:  64; 6HR MAX TEMP:  73;

MORRIS*        SUNNY     65  58  79 NE3       30.09S
ROMEOVILLE*    SUNNY     64  54  69 NE16      30.10R
NORTHERLY ISL    N/A     63  57  81 N16         N/A
$$

LMZ740>746-231300-
SOUTHERN LAKE MICHIGAN

STATION/POSITION SKY/WX   TEMP    WIND        PRES    VSBY  WAVE
                          AIR SEA DIR/SP/G                  HT/PER
                          (F)     (DEG/KT/KT) (MB)    (MI)  (FT/S)
SOUTHERN BUOY              60 60  350/ 19/ 23 1019.3R         5/ 6
WAUKEGAN HARBOR            62      10/ 20/ 26 1020.7R
HARRISON CRIB              64     360/ 26/ 31   N/A
BURNHAM HARBOR             63      10/ 12/ 18   N/A
CALUMET HARBOR             65     350/ 14/ 19 1018.1R
MICHIGAN CITY              65     360/ 27/ 32   N/A
$$

ILZ025>027-034>036-040-047-049-050-058-095>099-231300-
WEST-CENTRAL ILLINOIS

CITY           SKY/WX    TMP DP  RH WIND       PRES   REMARKS
QUINCY         SUNNY     71  68  90 N10       30.07R
GALESBURG*     SUNNY     68  66  93 N12       30.10R
MACOMB*        SUNNY     69  67  92 N9        30.10R
JACKSONVILLE*  SUNNY     75  72  90 N9        30.05R
PITTSFIELD*    SUNNY     74  69  84 N9        30.06R
$$

ILZ028>032-037-038-041>044-048-051>054-059>061-231300-
CENTRAL ILLINOIS

CITY           SKY/WX    TMP DP  RH WIND       PRES   REMARKS
PONTIAC        SUNNY     66  61  82 N8        30.08R
BLOOMINGTON    PTSUNNY   66  60  81 NE18      30.08R
DECATUR        MOSUNNY   75  73  94 N14       30.04R
PEORIA         MOSUNNY   74  64  71 NE13      30.07R
6HR MIN TEMP:  74; 6HR MAX TEMP:  81;

LACON*         MOSUNNY   67  60  77 N8G16     30.09R
LINCOLN*       MOSUNNY   73  69  87 N8        30.02R
SPRINGFIELD    CLOUDY    76  72  87 N13       30.03R
6HR MIN TEMP:  76; 6HR MAX TEMP:  79;

TAYLORVILLE    MOSUNNY   73  72  94 N8        30.02R FOG
$$

ILZ033-039-045-046-055>057-062-063-231300-
EAST-CENTRAL ILLINOIS

CITY           SKY/WX    TMP DP  RH WIND       PRES   REMARKS
CHAMPAIGN      PTSUNNY   70  66  87 NE13G23   30.04R
RANTOUL*       SUNNY     70  61  73 N15       30.07R
MATTOON        CLOUDY    75  70  84 CALM      30.02R
PARIS*         PTSUNNY   73  71  93 CALM      30.04R FOG
$$

ILZ079-100>102-231300-
SOUTHWEST ILLINOIS

CITY           SKY/WX    TMP DP  RH WIND       PRES   REMARKS
ALTON          MOSUNNY   77  77 100 N6        30.00R FOG
BELLEVILLE     SUNNY     75  73  93 CALM      30.00R
CAHOKIA*       MOSUNNY   78  72  81 SW6       29.99R HX  80
SPARTA*        MOSUNNY   75  70  83 SW8       30.01R
$$

ILZ064>066-069>071-074>076-080>082-084>086-088>090-092>094-231300-
SOUTH-CENTRAL ILLINOIS

CITY           SKY/WX    TMP DP  RH WIND       PRES   REMARKS
CARBONDALE     PTSUNNY   77  67  71 SW6       30.02R
6HR MIN TEMP:  70; 6HR MAX TEMP:  77; 6HR PCP: TRACE;

CAIRO*         MOSUNNY   76  71  84 CALM      30.03S
MARION         PTSUNNY   77  70  78 SW6       30.03R
MT. VERNON     PTSUNNY   75  66  73 SW5       30.02R
CENTRALIA*     MOSUNNY   73  67  82 SW5       30.01R
SALEM*         MOSUNNY   74  72  93 CALM      30.01R FOG
METROPOLIS*    MOSUNNY   73  68  84 CALM      30.03S FOG
$$

ILZ067-068-072-073-078-083-087-091-231300-
SOUTHEAST ILLINOIS

CITY           SKY/WX    TMP DP  RH WIND       PRES   REMARKS
FAIRFIELD*     CLOUDY    75  72  88 NE8       30.03R THUNDER
HARRISBURG*    PTSUNNY   71  71 100 S5        30.03R FOG
ROBINSON*      CLOUDY    69  68  95 W5        30.04R
CARMI*         PTSUNNY   71  70  98 E3        30.03R FOG
$$

ABBREVIATIONS USED IN REMARKS
   TC - TEMPERATURE IN CELSIUS
  WCI - WIND CHILL INDEX
   HX - HEAT INDEX
  VSB - VISIBILITY
$$




USA.gov is the U.S. government's official web portal to all federal, state and local government web resources and services.